Погода в Нанте

Франция     47°13′09″N   1°33′22″W
темп.,
°C
ветер,
м/с
пор.,
м/с
влажн.,
%
обл.,
%
осадки,
мм/ч
давл.,
гПа
погр.,
м
17 сентября, пт
пт1723:00+14зсз34885 0.0 101968
02:00+13з229126 0.0 101811
05:00+13ююз229379 0.0 101619
08:00+13ююз2295100 0.0 101635
11:00+19юз346142 0.0 1015730
14:00+24юз4439100 0.0 10141822
17:00+23зюз764974 0.0 10121651
20:00+20юз476436 0.0 1013389
18 сентября, сб
сб1823:00+16ююз35922 0.0 101478
02:00+15ю359585 0.1 1013102
05:00+16ю469689 0.8 1012237
08:00+14юз3597100 1.1 1013125
11:00+17зюз458090 0.0 1014468
14:00+22зюз444552 0.0 10141770
17:00+21зюз654353 0.1 10131724
20:00+17зюз586298 0.1 1013240
19 сентября, вс
вс1923:00+13з35905 0.0 101599
02:00+12зсз33940 0.1 101543
05:00+11зсз23930 0.2 101544
08:00+10зсз35951 0.2 101687
11:00+17зсз456411 0.0 1017773
14:00+21з5642100 0.0 10151916
17:00+20з6649100 0.0 10151358
20:00+17з4769100 0.0 1015173
20 сентября, пн
пн2023:00+14зсз2292100 0.1 101614
02:00+13сз3697100 0.2 1016135
05:00+14сз4990100 0.3 1017438
08:00+13сз4889100 0.4 1017351
11:00+14сз488594 0.1 1019461
14:00+20с7751100 0.3 10191531
17:00+20с675970 0.4 10191353
20:00+17ссз58675 0.5 1021300
21 сентября, вт
вт2123:00+13ссз411910 0.0 1023299
02:00+12с39975 0.0 1023209
05:00+11ссв38940 0.0 1024158
08:00+10с38930 0.0 1024155
11:00+17ссв575614 0.0 1025661
14:00+21ссв5637100 0.0 10251625
17:00+23ссв67315 0.0 10241934
20:00+18св464344 0.0 102477